Location: Sigmaringen
(48.0900°N, 9.2120°E)
Time: 00:26:42
(UTC+02:00)

ISS - Visible Passes

Search period start: 24 May 2018 00:00
Search period end: 03 June 2018 00:00
Orbit: 402 x 407 km, 51.6° (Epoch: 24 May)

Date Brightness Start Highest point End Pass type
(mag) Time Alt. Az. Time Alt. Az. Time Alt. Az.
24 May -2.9 01:21:52 10° WNW 01:25:04 49° N 01:27:55 12° E visible
24 May -2.7 02:58:24 10° WNW 03:00:19 30° W 03:00:19 30° W visible
24 May -3.2 22:52:44 10° W 22:55:58 60° NNW 22:59:13 10° ENE visible
25 May -2.6 00:29:37 10° WNW 00:32:46 43° N 00:35:43 11° ENE visible
25 May -2.8 02:06:10 10° WNW 02:08:18 37° WNW 02:08:18 37° WNW visible
25 May -3.7 22:00:26 10° WSW 22:03:44 82° NNW 22:07:01 10° ENE visible
25 May -2.6 23:37:19 10° WNW 23:40:28 42° N 23:43:36 10° ENE visible
26 May -3.6 01:13:58 10° WNW 01:17:14 68° NNE 01:17:14 68° NNE visible
26 May -2.7 22:44:58 10° W 22:48:08 46° N 22:51:19 10° ENE visible
27 May -3.1 00:21:44 10° WNW 00:24:57 52° NNE 00:26:24 28° ENE visible
27 May -1.5 01:58:17 10° WNW 01:59:01 15° WNW 01:59:01 15° WNW visible
27 May -3.0 21:52:35 10° W 21:55:49 54° NNW 21:59:02 10° ENE visible
27 May -2.7 23:29:28 10° WNW 23:32:37 44° N 23:35:40 11° E visible
28 May -3.0 01:06:00 10° WNW 01:08:17 41° W 01:08:17 41° W visible
28 May -2.6 22:37:08 10° WNW 22:40:16 42° N 22:43:25 10° ENE visible
29 May -3.8 00:13:44 10° WNW 00:17:01 76° NNE 00:17:36 56° E visible
29 May -3.3 23:21:29 10° WNW 23:24:44 56° NNE 23:26:58 18° E visible
30 May -2.1 00:58:04 10° WNW 00:59:36 23° W 00:59:36 23° W visible
30 May -2.8 22:29:11 10° WNW 22:32:22 46° N 22:35:33 10° E visible
31 May -3.9 00:05:42 10° WNW 00:08:57 63° SSW 00:08:59 63° SSW visible
31 May -3.9 23:13:24 10° WNW 23:16:41 86° NNE 23:18:23 26° ESE visible
01 Jun -1.3 00:50:23 10° W 00:51:02 13° W 00:51:02 13° W visible
01 Jun -3.4 22:21:06 10° WNW 22:24:22 62° NNE 22:27:37 10° E visible
01 Jun -2.8 23:57:45 10° W 00:00:27 32° SW 00:00:27 32° SW visible
02 Jun -3.6 23:05:19 10° WNW 23:08:31 53° SSW 23:09:55 28° SE visible
